Weather History for LRAR - April, 2014

Change the Weather History Date:

Saturday, April 19, 2014

  Actual Average Record
Temperature  
Mean Temperature 58 °F -  
Max Temperature 67 °F 68 °F 73 °F (2009)
Min Temperature 50 °F 46 °F 31 °F (2015)
Degree Days  
Heating Degree Days 6    
Growing Degree Days 8 (Base 50)    
Moisture  
Dew Point 49 °F    
Average Humidity 73    
Maximum Humidity 100    
Minimum Humidity 31    
Precipitation  
Precipitation 0.01 in - - ()
Sea Level Pressure  
Sea Level Pressure 29.65 in    
Wind  
Wind Speed 6 mph ()    
Max Wind Speed 14 mph    
Max Gust Speed -    
Visibility 8.6 miles    
Events Rain , Thunderstorm    
Averages and records for this station are not official NWS values.
T = Trace of Precipitation, MM = Missing Value Source: Averaged Metar Reports

Daily Weather History Graph

Daily Weather History Graph

Search for Another Location

Airport or City:

Trip Planner

Search our weather history database for the weather conditions in past years. The results will help you decide how hot, cold, wet, or windy it might be!

Date:

Astronomy

Apr. 19, 2014 Rise Set
Actual Time 6:41 AM EEST 8:27 PM EEST
Civil Twilight 6:10 AM EEST 8:59 PM EEST
Nautical Twilight 5:31 AM EEST 9:38 PM EEST
Astronomical Twilight 4:49 AM EEST 10:20 PM EEST
Moon 12:00 AM EEST (4/19) 9:34 AM EEST (4/19)
Length of Visible Light 14h 48m
Length of Day
13h 45m
Waning Gibbous, 81% of the Moon is Illuminated
Apr 19
Waning Gibbous
Apr 22
Last Quarter
Apr 29
New
May 7
First Quarter
May 14
Full

Hourly Weather History & Observations

Time (EEST) Temp. Dew Point Humidity Pressure Visibility Wind Dir Wind Speed Gust Speed Precip Events Conditions
12:00 AM 58 °F 49 °F 62% 29.63 in 12 mi NNW 4.5 mph - -   Overcast
12:00 AM 55.4 °F 53.6 °F 94% 29.62 in 6.2 mi North 9.2 mph - N/A   Unknown
1:00 AM 56 °F 49 °F 70% 29.62 in 12 mi NNW 2.2 mph - -   Overcast
1:00 AM 51.8 °F 51.8 °F 100% 29.59 in 6.2 mi Variable 2.3 mph - N/A   Unknown
2:00 AM 55 °F 49 °F 72% 29.60 in 12 mi North 2.2 mph - -   Scattered Clouds
2:00 AM 55.4 °F 51.8 °F 88% 29.59 in 6.2 mi NNE 9.2 mph - N/A   Unknown
3:00 AM 54 °F 48 °F 74% 29.59 in 12 mi North 2.2 mph - -   Scattered Clouds
3:00 AM 57.2 °F 51.8 °F 82% 29.56 in 6.2 mi NNE 13.8 mph - N/A Rain Light Rain
4:00 AM 56 °F 48 °F 68% 29.57 in 12 mi North 4.5 mph - -   Overcast
4:00 AM 57.2 °F 51.8 °F 82% 29.56 in 6.2 mi NE 9.2 mph - N/A   Unknown
5:00 AM 54 °F 48 °F 75% 29.56 in 12 mi NE 2.2 mph - -   Mostly Cloudy
5:00 AM 57.2 °F 50.0 °F 77% 29.53 in 6.2 mi NNE 9.2 mph - N/A   Unknown
6:00 AM 55 °F 48 °F 71% 29.56 in 12 mi North 6.7 mph - - Rain Light Rain Showers
6:00 AM 55.4 °F 50.0 °F 82% 29.53 in - NNE 13.8 mph - N/A   Clear
6:30 AM 57.2 °F 50.0 °F 77% 29.56 in 6.2 mi NE 13.8 mph - N/A   Partly Cloudy
7:00 AM 53 °F 49 °F 80% 29.57 in 12 mi NNE 4.5 mph - -   Overcast
7:00 AM 53.6 °F 51.8 °F 94% 29.56 in 6.2 mi NE 10.4 mph - N/A   Scattered Clouds
7:30 AM 53.6 °F 51.8 °F 94% 29.56 in 6.2 mi NE 8.1 mph - N/A   Scattered Clouds
8:00 AM 51 °F 49 °F 89% 29.58 in 12 mi NNE 2.2 mph - -   Mostly Cloudy
8:00 AM 51.8 °F 51.8 °F 100% 29.56 in 6.2 mi ENE 4.6 mph - N/A   Partly Cloudy
8:30 AM 53.6 °F 53.6 °F 100% 29.59 in 6.2 mi NE 6.9 mph - N/A   Partly Cloudy
9:00 AM 53 °F 50 °F 84% 29.60 in 12 mi North 2.2 mph - -   Partly Cloudy
9:00 AM 53.6 °F 53.6 °F 100% 29.59 in - NE 9.2 mph - N/A   Clear
9:30 AM 55.4 °F 53.6 °F 94% 29.62 in - ENE 4.6 mph - N/A   Clear
10:00 AM 56 °F 48 °F 66% 29.62 in 12 mi ESE 4.5 mph - -   Mostly Cloudy
10:00 AM 59.0 °F 48.2 °F 67% 29.62 in - ENE 4.6 mph - N/A   Clear
10:30 AM 60.8 °F 48.2 °F 63% 29.62 in - ESE 9.2 mph - N/A   Clear
11:00 AM 60 °F 46 °F 48% 29.64 in 12 mi East 6.7 mph - -   Scattered Clouds
11:00 AM 60.8 °F 48.2 °F 63% 29.62 in 6.2 mi SE 11.5 mph - N/A   Partly Cloudy
11:30 AM 60.8 °F 50.0 °F 68% 29.65 in 6.2 mi SE 6.9 mph - N/A   Partly Cloudy
12:00 PM 62 °F 45 °F 43% 29.65 in 12 mi ESE 4.5 mph - -   Scattered Clouds
12:00 PM 62.6 °F 44.6 °F 52% 29.65 in 6.2 mi ESE 9.2 mph - N/A   Partly Cloudy
12:30 PM 62.6 °F 48.2 °F 59% 29.65 in 6.2 mi ENE 6.9 mph - N/A   Scattered Clouds
1:00 PM 64 °F 42 °F 33% 29.65 in 12 mi East 4.5 mph - -   Scattered Clouds
1:00 PM 64.4 °F 46.4 °F 52% 29.65 in 6.2 mi SE 4.6 mph - N/A   Scattered Clouds
1:30 PM 64.4 °F 41.0 °F 42% 29.65 in 6.2 mi Variable 9.2 mph - N/A   Mostly Cloudy
2:00 PM 64 °F 42 °F 33% 29.66 in 12 mi ESE 6.7 mph - -   Partly Cloudy
2:00 PM 66.2 °F 42.8 °F 43% 29.65 in 6.2 mi SSE 9.2 mph - N/A   Mostly Cloudy
2:30 PM 57.2 °F 48.2 °F 72% 29.68 in 6.2 mi East 9.2 mph - N/A Rain , Thunderstorm Light Thunderstorms and Rain
3:00 PM 64 °F 45 °F 39% 29.67 in 12 mi North 2.2 mph - -   Mostly Cloudy
3:00 PM 62.6 °F 50.0 °F 63% 29.68 in 6.2 mi NW 6.9 mph - N/A   Scattered Clouds
3:30 PM 62.6 °F 48.2 °F 59% 29.68 in 6.2 mi North 4.6 mph - N/A   Scattered Clouds
4:00 PM 67 °F 45 °F 33% 29.66 in 12 mi ENE 4.5 mph - -   Mostly Cloudy
4:00 PM 60.8 °F 46.4 °F 59% 29.65 in 6.2 mi North 6.9 mph - N/A   Scattered Clouds
4:30 PM 62.6 °F 48.2 °F 59% 29.65 in 6.2 mi ENE 9.2 mph - N/A   Scattered Clouds
5:00 PM 64 °F 41 °F 31% 29.67 in 12 mi East 4.5 mph - -   Mostly Cloudy
5:00 PM 62.6 °F 42.8 °F 48% 29.68 in 6.2 mi Variable 2.3 mph - N/A   Scattered Clouds
5:30 PM 60.8 °F 46.4 °F 59% 29.68 in 6.2 mi SW 4.6 mph - N/A Thunderstorm Thunderstorm
6:00 PM 61 °F 46 °F 46% 29.69 in 12 mi South 2.2 mph - -   Mostly Cloudy
6:00 PM 57.2 °F 50.0 °F 77% 29.68 in 6.2 mi West 4.6 mph - N/A Thunderstorm Thunderstorm
6:30 PM 57.2 °F 50.0 °F 77% 29.71 in 6.2 mi West 4.6 mph - N/A Thunderstorm Thunderstorm
7:00 PM 59 °F 46 °F 51% 29.71 in 12 mi SW 2.2 mph - -   Mostly Cloudy
7:00 PM 55.4 °F 53.6 °F 94% 29.71 in 6.2 mi SW 9.2 mph - N/A   Scattered Clouds
7:30 PM 53.6 °F 53.6 °F 100% 29.71 in 6.2 mi SW 9.2 mph - N/A   Partly Cloudy
8:00 PM 54 °F 48 °F 75% 29.73 in 12 mi SW 4.5 mph - -   Partly Cloudy
8:00 PM 53.6 °F 53.6 °F 100% 29.74 in 6.2 mi WSW 5.8 mph - N/A   Partly Cloudy
8:30 PM 51.8 °F 51.8 °F 100% 29.74 in 6.2 mi Variable 2.3 mph - N/A   Partly Cloudy
9:00 PM 53 °F 48 °F 79% 29.75 in 12 mi WSW 2.2 mph - -   Partly Cloudy
9:00 PM 51.8 °F 51.8 °F 100% 29.74 in 6.2 mi SW 3.5 mph - N/A   Mostly Cloudy
9:30 PM 51.8 °F 51.8 °F 100% 29.74 in 6.2 mi SW 2.3 mph - N/A   Scattered Clouds
10:00 PM 50 °F 49 °F 95% 29.77 in 12 mi SSE 2.2 mph - -   Partly Cloudy
10:00 PM 51.8 °F 51.8 °F 100% 29.74 in - Variable 2.3 mph - N/A   Clear
10:30 PM 51.8 °F 51.8 °F 100% 29.77 in - ESE 4.6 mph - N/A   Clear
11:00 PM 50 °F 49 °F 93% 29.78 in 12 mi NE 2.2 mph - -   Partly Cloudy
11:00 PM 50.0 °F 50.0 °F 100% 29.77 in - South 2.3 mph - N/A   Clear